Showing default

COSMOS 44, 876

Orbit data source: Space-Track

COSMOS 44, 876 is a payload satellite owned by VNIIEM (CIS) in LEO that was launched on Fri, 28 Aug 1964 UTC via a VOSTOK 8A92M launch vehicle from the Tyuratam Missile And Space Complex (TTMTR). Payload-class satellites include a variety of spacecraft equipped with specific instruments for various scientific and technological missions. These include communications satellites like Starlink; space stations such as the ISS; scientific satellites like the Hubble; Earth observation satellites from companies like Planet Labs, Umbra, and HawkEye 360; GPS; miniature CubeSats for education and research; and military/defense satellites.

Loading next visibility...
Identifier
876, 1964-053A
Orbit
LEO
Country
Flag of CISCIS
Related business
Manufacturer
VNIIEM
Mission
Spacecraft
Bus & Motor
METEOR, Unknown motor
Mass
~1,250 kg wet, ~1,250 kg dry
Launch date (UTC)
1964-08-28 (61 years ago)
Launch vehicle
VOSTOK 8A92M
Launch site
Tyuratam Missile And Space Complex (TTMTR)
Object type
Payload
Rocket body
Debris
Shape & HBR
Unknown
Radar Cross Section
Large (>1 m²)

Expand to show TLE details & history
Last TLE update: 6 hours ago

TLE from 6 hours ago
0 COSMOS 44
1 00876U 64053A   26034.25330898  .00000561  00000-0  11008-3 0  9997
2 00876  65.0606   1.4877 0147823 310.2820  48.5435 14.65641019269041
Epoch: 2026-02-03T06:04Z
TLE epoch observation values (Epoch: 2026-02-03T06:04:45.895Z)
Latitude
-0.00002°
Longitude
136.85957°
Altitude
608.873 km
Speed
7.592 km/s
True Right ascension
00h 05m 57s
True Declination
0° 00' 00"
Sunlit
Object was in daylight at epoch
Visualization orbit readout
Latitude
Unknown
Longitude
Unknown
Altitude
Unknown
Speed
Unknown
Apparent Right ascension
Unknown
Apparent Declination
Unknown
Sunlit
N/A
Visualization observer readout
Local Sidereal Time
14:02:20
Azimuth
Unknown
Elevation
Unknown
Doppler factor
Unknown
Orbital elements
Apogee altitude
777.806 km
Perigee altitude
569.325 km
Semi-major axis
7,051.702 km
Eccentricity
0.01478
Inclination
65.0606°
RAAN
1.4877°
Arg. of periapsis
310.282°
True anomaly
49.82863°
Mean anomaly
48.5435°
Eccentric anomaly
49.1845°
Mean motion
3.66524 °/min
Orbital period
98.22 mins
BSTAR
0.00011008
Loading maneuver chart data...
Computing Atmospheric mass density...
Loading historical data...
Loading historical data...
Loading historical data...
Loading historical data...
Loading historical data...
Loading historical data...
Loading historical data...
Other satellites on launch #53 in the year 1964 (1964-08-28 UTC)

Documentation

Showing up to 5 results
|